AirNav   Air Wisconsin Up To $57,000 Bonus
 
 723 users online  

A61 Tuntutuliak Airport
Tuntutuliak, Alaska, USA

GOING TO TUNTUTULIAK?


FAA INFORMATION EFFECTIVE 18 JULY 2019

Location

FAA Identifier: A61
Lat/Long: 60-21-03.9900N / 162-39-16.6000W
60-21.066500N / 162-39.276667W
60.3511083 / -162.6546111
(estimated)
Elevation: 16 ft. / 5 m (estimated)
Variation: 12E (2015)
From city: 1 mile NE of TUNTUTULIAK, AK
Time zone: UTC -8 (UTC -9 during Standard Time)
Zip code: 99680

Airport Operations

Airport use: Open to the public
Activation date: 08/1974
Control tower: no
ARTCC: ANCHORAGE CENTER
FSS: KENAI FLIGHT SERVICE STATION [907-283-8469]
NOTAMs facility: ENA (NOTAM-D service available)
Attendance: UNATNDD
Wind indicator: lighted
Segmented circle: yes
Lights: ACTVT MIRL RY 02/20 - 122.7.
Beacon: white-green (lighted land airport)
Operates sunset to sunrise.

Airport Communications

CTAF: 122.7

Nearby radio navigation aids

VOR radial/distance  VOR name  Freq  Var
BETr209/35.7BETHEL VORTAC114.1014E

 
NDB name  Hdg/Dist  Freq  Var  ID
OSCARVILLE210/35.125111EOSE --- ... .

Airport Services

Airframe service: NONE
Powerplant service: NONE

Runway Information

Runway 2/20

Dimensions: 3005 x 75 ft. / 916 x 23 m
Surface: gravel, in good condition
Runway edge lights: medium intensity
Runway edge markings: RY 02/20 NSTD MKGS: RY ENDS MKD WITH CONES & REFLECTIVE MARKERS.
RUNWAY 2  RUNWAY 20
Latitude: 60-20.861333N60-21.271667N
Longitude: 162-39.552833W162-39.000333W
Elevation: 14.4 ft.15.1 ft.
Traffic pattern: leftleft
Markings: NSTDNSTD
Runway end identifier lights: yes
Obstructions: 6 ft. brush, 36 ft. from runway, 65 ft. right of centerline, 6:1 slope to clear3 ft. brush, 5 ft. from runway, 68 ft. right of centerline, 1:1 slope to clear

Airport Ownership and Management from official FAA records

Ownership: Publicly-owned
Owner: ALASKA DOT&PF CENTRAL REGION
PO BOX 196900
ANCHORAGE, AK 99519-6900
Phone (907) 269-0749
Manager: LAWERENCE DAVIS
PO BOX 505
BETHEL, AK 99559
Phone (907) 543-2498

Airport Operational Statistics

Aircraft operations: avg 83/month *
100% air taxi
* for 12-month period ending 31 December 2016

Additional Remarks

MULTIPLE UNLIT WIND GENERATORS NEAR RIVER UP TO 120'.
WINDSOCKS MAY BE UNRELIABLE
RY CONDITION NOT MONITORED; RECOMMEND VISUAL INSPECTION PRIOR TO USE.
WX CAMERA AVBL ON INTERNET AT HTTP://AVCAMS.FAA.GOV
BIRDS ON INVOF RY.

Instrument Procedures

There are no published instrument procedures at A61.

Some nearby airports with instrument procedures:

PAEE - Eek Airport (20 nm SE)
PANA - Napakiak Airport (29 nm NE)
PFKA - Kasigluk Airport (32 nm N)
PAPK - Napaskiak Airport (33 nm NE)
PABE - Bethel Airport (35 nm NE)
 
Loc | Ops | Rwys | IFR | FBO | Links
Com | Nav | Svcs | Stats | Notes

Crowley
 
Area around A61 (Tuntutuliak Airport)
 
Road maps at: MapQuest Bing Google
 
Aerial photo
No photo
 
Sectional chart

 
Airport distance calculator
Flying to Tuntutuliak Airport? Find the distance to fly.

From to A61

Sunrise and sunset
Times for 22-Jul-2019
 Local
(UTC-8)
 Zulu
(UTC)
Morning civil twilight04:5612:56
Sunrise06:0714:07
Sunset23:4707:47
Evening civil twilight00:5908:59

Current date and time
Zulu (UTC)  22-Jul-2019 11:37:43
Local (UTC-8)  22-Jul-2019 03:37:43
 
METAR
PANA 
29nm NE 
221056Z AUTO 00000KT 10SM OVC021 13/12 RMK AO2 SLPNO T01280122 PWINO $
PPIT 
34nm N 
221056Z AUTO 00000KT 10SM OVC037 14/14 A3013 RMK AO2 SLP204 T01390139 TSNO
PABE 
36nm NE 
221119Z 13004KT 1/2SM R19R/P6000FT FG CLR 11/11 A3015 RMK AO2 T01110111 $
PAQH 
43nm SE 
221056Z AUTO 03003KT 10SM OVC024 14/12 A3015 RMK AO2 SLP208 T01390117
PFKW 
44nm NE 
221059Z AUTO 00000KT 1/2SM FG FEW025 11/11 A3014 RMK AO2
PAKI 
48nm SW 
221056Z AUTO 25005KT 10SM OVC015 13/12 A3013 RMK AO2 SLP204 T01280122
TAF
PABE 
36nm NE 
220527Z 2206/2306 VRB04KT P6SM OVC025 FM220800 VRB03KT P6SM OVC015
NOTAMs
Click for the latest NOTAMs
NOTAMs are issued by the DoD/FAA and will open in a separate window not controlled by AirNav.

 

 
 

Would you like to see your business listed on this page?

 If your business provides an interesting product or service to pilots, flight crews, aircraft, or users of the Tuntutuliak Airport, you should consider listing it here.  To start the listing process, click on the button below
 
Add a business
 

Other Pages about Tuntutuliak Airport

Update a link
 
Copyright © AirNav, LLC. All rights reserved. Privacy Policy  Contact